505P/Palomar (2017)

Japanese version
Home page
Updated on August 15, 2025

---------------------------------------------------------------------

* Profile

* Pictures

* Orbital Elements

                    Epoch = 2017 Oct. 14.0 TT
     T = 2017 Sept.26.40015 TT        Peri. = 144.02101
     e = 0.3127898                    Node  = 111.95066 2000.0
     q = 2.8160651 AU                 Incl. =  11.39995
       a =  4.0978221 AU   n = 0.11881586   P =   8.30 years

* Magnitudes Graph

        H = 15.5  G = 0.15

---------------------------------------------------------------------

The orbital elements are printed on CBET 5543.
The magnitudes graphs are made with Comet for Windows.

---------------------------------------------------------------------

Copyright(C) Seiichi Yoshida (comet@aerith.net). All rights reserved.